Location: Aalsum
(53.3404°N, 6.0062°E)
Time: 00:49:33
(UTC+00:00)

IGS 5A - Pass Details

Date: 28 January 2023
Orbit: 578 x 583 km, 97.5° (Epoch: 10 March)

Event Time Altitude Azimuth Distance (km) Brightness Sun altitude
Exits shadow 17:48:10 24° 73° (ENE) 1,226 4.5 -14.3°
Maximum altitude 17:48:37 25° 62° (ENE) 1,211 4.5 -14.4°
Drops below altitude 10° 17:51:59 10° 8° (N) 1,914 5.9 -14.9°
Sets 17:54:26 0° 355° (N) 2,818 6.9 -15.3°
